Location: Neuvy Saint Sepulchre
(46.5953°N, 1.8122°E)
Time: 10:07:40
(UTC+02:00)

ISS - Pass Details

Date: 29 March 2024
Orbit: 413 x 419 km, 51.6° (Epoch: 13 April)

Event Time Altitude Azimuth Distance (km) Brightness Sun altitude
Rises 20:37:50 0° 293° (WNW) 2,364 2.1 -14.1°
Reaches altitude 10° 20:40:01 10° 285° (WNW) 1,499 0.5 -14.4°
Maximum altitude 20:43:10 38° 216° (SW) 661 -2.7 -14.9°
Enters shadow 20:44:49 22° 162° (SSE) 970 -2.3 -15.2°
